Hollywood, FL

12:46 AM EDT on September 25, 2016 (GMT -0400)
North Perry

Weather History for KHWO - March, 2014

Change the Weather History Date:

Tuesday, March 25, 2014

  Actual Average (KFLL) Record (KFLL)
Temperature  
Mean Temperature 74 °F 74 °F  
Max Temperature 84 °F 81 °F 90 °F (1952)
Min Temperature 64 °F 67 °F 41 °F (1915)
Degree Days  
Heating Degree Days 0 0  
Month to date heating degree days 7  
Since 1 July heating degree days 109  
Cooling Degree Days 9 9  
Month to date cooling degree days 200  
Year to date cooling degree days 556  
Growing Degree Days 24 (Base 50)    
Moisture  
Dew Point 64 °F    
Average Humidity 83    
Maximum Humidity 100    
Minimum Humidity 47    
Precipitation  
Precipitation 0.27 in 0.11 in 0.97 in (1925)
Month to date precipitation 2.63  
Year to date precipitation 9.22  
Snow  
Snow 0.00 in - - ()
Month to date snowfall  
Since 1 July snowfall  
Snow Depth -    
Sea Level Pressure  
Sea Level Pressure 29.94 in    
Wind  
Wind Speed 8 mph (WSW)    
Max Wind Speed 21 mph    
Max Gust Speed 28 mph    
Visibility 10 miles    
Events Rain , Thunderstorm    
T = Trace of Precipitation, MM = Missing Value Source: NWS Daily Summary

Daily Weather History Graph

Daily Weather History Graph

Search for Another Location

Airport or City:

Trip Planner

Search our weather history database for the weather conditions in past years. The results will help you decide how hot, cold, wet, or windy it might be!

Date:

Astronomy

Mar. 25, 2014 Rise Set
Actual Time 7:19 AM EDT 7:34 PM EDT
Civil Twilight 6:56 AM EDT 7:57 PM EDT
Nautical Twilight 6:29 AM EDT 8:24 PM EDT
Astronomical Twilight 6:02 AM EDT 8:51 PM EDT
Moon 3:11 AM EDT 2:31 PM EDT
Length of Visible Light 13h 01m
Length of Day
12h 15m
Waning Crescent, 32% of the Moon is Illuminated
Mar 25
Waning Crescent
Mar 30
New
Apr 7
First Quarter
Apr 15
Full
Apr 22
Last Quarter

Hourly Weather History & Observations

Time (EDT) Temp. Heat Index Dew Point Humidity Pressure Visibility Wind Dir Wind Speed Gust Speed Precip Events Conditions
12:53 AM 66.0 °F - 64.0 °F 93% 30.02 in 10.0 mi NW 11.5 mph - 0.01 in Rain Light Rain
1:53 AM 64.9 °F - 64.0 °F 97% 29.99 in 10.0 mi NNW 4.6 mph - 0.05 in Rain Light Rain
2:06 AM 64.0 °F - 64.0 °F 100% 29.98 in 10.0 mi Calm Calm - 0.00 in Rain , Thunderstorm Light Rain
2:21 AM 64.9 °F - 64.9 °F 100% 29.98 in 10.0 mi South 4.6 mph - 0.00 in   Mostly Cloudy
2:53 AM 64.9 °F - 64.9 °F 100% 29.93 in 10.0 mi East 3.5 mph - 0.00 in   Partly Cloudy
3:53 AM 64.9 °F - 64.9 °F 100% 29.91 in 10.0 mi SE 3.5 mph - 0.00 in Rain Light Rain
4:53 AM 64.9 °F - 64.0 °F 97% 29.89 in 10.0 mi Calm Calm - 0.01 in   Scattered Clouds
5:53 AM 64.9 °F - 64.9 °F 100% 29.92 in 10.0 mi Calm Calm - 0.02 in Rain Light Rain
6:16 AM 64.9 °F - 64.9 °F 100% 29.93 in 10.0 mi Calm Calm - 0.00 in Rain , Thunderstorm Light Rain
6:31 AM 64.9 °F - 64.9 °F 100% 29.94 in 10.0 mi Calm Calm - 0.00 in Rain Light Rain
6:45 AM 64.9 °F - 64.9 °F 100% 29.95 in 3.0 mi SW 3.5 mph - 0.07 in Rain , Thunderstorm Heavy Rain
6:53 AM 64.9 °F - 64.0 °F 97% 29.97 in 7.0 mi SSW 10.4 mph - 0.08 in Rain , Thunderstorm Light Rain
7:06 AM 64.9 °F - 64.9 °F 100% 29.97 in 6.0 mi SSW 5.8 mph - 0.03 in Rain Rain
7:23 AM 64.9 °F - 64.9 °F 100% 29.97 in 10.0 mi South 3.5 mph - 0.06 in Rain Light Rain
7:53 AM 64.9 °F - 64.9 °F 100% 29.95 in 10.0 mi SSE 6.9 mph - 0.09 in Rain Light Rain
8:53 AM 64.9 °F - 64.9 °F 100% 29.94 in 10.0 mi South 4.6 mph - 0.01 in Rain Light Rain
9:53 AM 68.0 °F - 66.0 °F 93% 29.94 in 10.0 mi SW 5.8 mph - 0.00 in Rain Light Rain
10:53 AM 69.1 °F - 66.9 °F 93% 29.96 in 10.0 mi SW 8.1 mph - 0.00 in   Partly Cloudy
11:50 AM 73.4 °F - 66.2 °F 78% 29.94 in 10.0 mi SW 13.8 mph - N/A   Overcast
11:53 AM 73.0 °F - 66.9 °F 81% 29.94 in 10.0 mi SW 11.5 mph - N/A   Overcast
12:53 PM 75.0 °F - 66.9 °F 76% 29.93 in 10.0 mi WSW 12.7 mph - N/A   Mostly Cloudy
1:08 PM 77.0 °F - 66.9 °F 71% 29.91 in 10.0 mi WSW 17.3 mph 21.9 mph N/A   Mostly Cloudy
1:53 PM 79.0 °F - 66.9 °F 66% 29.89 in 10.0 mi WSW 11.5 mph 24.2 mph N/A   Mostly Cloudy
2:53 PM 82.0 °F 83.8 °F 64.9 °F 56% 29.86 in 10.0 mi WSW 16.1 mph - N/A   Scattered Clouds
3:53 PM 84.0 °F 84.5 °F 62.1 °F 47% 29.85 in 10.0 mi West 17.3 mph 27.6 mph N/A   Scattered Clouds
4:53 PM 82.9 °F 84.4 °F 64.0 °F 53% 29.85 in 10.0 mi WNW 18.4 mph 27.6 mph N/A   Partly Cloudy
5:33 PM 77.0 °F - 66.0 °F 69% 29.87 in 10.0 mi NW 16.1 mph - N/A   Scattered Clouds
5:53 PM 77.0 °F - 66.0 °F 69% 29.88 in 10.0 mi NW 13.8 mph - N/A   Partly Cloudy
6:53 PM 78.1 °F - 64.0 °F 62% 29.89 in 10.0 mi West 18.4 mph - N/A   Partly Cloudy
7:53 PM 75.0 °F - 63.0 °F 66% 29.92 in 10.0 mi West 13.8 mph 23.0 mph N/A   Clear
8:53 PM 73.0 °F - 62.1 °F 68% 29.96 in 10.0 mi WNW 13.8 mph - N/A   Partly Cloudy
9:53 PM 70.0 °F - 59.0 °F 68% 29.99 in 10.0 mi WNW 13.8 mph 23.0 mph N/A   Clear
10:53 PM 66.0 °F - 54.0 °F 65% 30.02 in 10.0 mi WNW 11.5 mph - N/A   Clear
11:53 PM 64.0 °F - 54.0 °F 70% 30.04 in 10.0 mi WNW 20.7 mph - N/A   Clear